Time,TemperatureF,DewpointF,PressureIn,WindDirection,WindDirectionDegrees,WindSpeedMPH,WindSpeedGustMPH,Humidity,HourlyPrecipIn,Conditions,Clouds,dailyrainin,SolarRadiationWatts/m^2,SoftwareType,DateUTC
2013-07-16 12:43:00,88.0,77.0,-100.00,ESE,104,8.0,13.0,71,-99.99,,,0.00,506.000000,,2013-07-16 17:43:00,
2013-07-16 12:53:00,88.0,77.0,-100.00,ESE,104,8.0,13.0,71,-99.99,,,0.00,506.000000,,2013-07-16 17:53:00,
2013-07-16 13:01:00,88.0,77.0,-100.00,ESE,104,8.0,13.0,71,-99.99,,,0.00,506.000000,,2013-07-16 18:01:00,
2013-07-16 14:01:00,90.0,75.0,-100.00,East,79,5.0,14.0,62,0.00,,,0.00,625.000000,,2013-07-16 19:01:00,
2013-07-16 16:01:00,80.0,65.0,-100.00,ESE,116,4.0,18.0,61,-99.99,,,0.07,300.000000,,2013-07-16 21:01:00,
2013-07-16 16:43:00,80.0,77.0,-100.00,SSW,208,3.0,6.0,92,0.00,,,0.07,67.000000,,2013-07-16 21:43:00,
2013-07-16 16:52:00,80.0,77.0,-100.00,SSW,208,3.0,6.0,92,0.00,,,0.07,67.000000,,2013-07-16 21:52:00,
2013-07-16 17:01:00,80.0,77.0,-100.00,SSW,208,3.0,6.0,92,0.00,,,0.07,67.000000,,2013-07-16 22:01:00,
2013-07-16 17:33:00,79.0,76.0,-100.00,NNW,329,3.0,5.0,92,0.00,,,0.07,75.000000,,2013-07-16 22:33:00,
2013-07-16 17:43:00,79.0,76.0,-100.00,NNW,329,3.0,5.0,92,0.00,,,0.07,75.000000,,2013-07-16 22:43:00,
2013-07-16 17:52:00,79.0,76.0,-100.00,NNW,329,3.0,5.0,92,0.00,,,0.07,75.000000,,2013-07-16 22:52:00,
2013-07-16 18:01:00,79.0,76.0,-100.00,NNW,329,3.0,5.0,92,0.00,,,0.07,75.000000,,2013-07-16 23:01:00,
2013-07-16 18:32:00,80.0,77.0,-100.00,SSE,157,5.0,9.0,91,0.00,,,0.07,62.000000,,2013-07-16 23:32:00,
2013-07-16 18:43:00,80.0,77.0,-100.00,SSE,157,5.0,9.0,91,0.00,,,0.07,62.000000,,2013-07-16 23:43:00,
2013-07-16 18:52:00,80.0,77.0,-100.00,SSE,157,5.0,9.0,91,0.00,,,0.07,62.000000,,2013-07-16 23:52:00,
2013-07-16 19:01:00,80.0,77.0,-100.00,SSE,157,5.0,9.0,91,0.00,,,0.07,62.000000,,2013-07-17 00:01:00,
2013-07-16 19:33:00,77.0,75.0,-100.00,East,91,3.0,11.0,93,0.00,,,0.07,27.000000,,2013-07-17 00:33:00,
2013-07-16 19:42:00,77.0,75.0,-100.00,East,91,3.0,11.0,93,0.00,,,0.07,27.000000,,2013-07-17 00:42:00,
2013-07-16 19:52:00,77.0,75.0,-100.00,East,91,3.0,11.0,93,0.00,,,0.07,27.000000,,2013-07-17 00:52:00,
2013-07-16 20:01:00,77.0,75.0,-100.00,East,91,3.0,11.0,93,0.00,,,0.07,27.000000,,2013-07-17 01:01:00,
2013-07-16 20:32:00,76.0,74.0,-100.00,East,99,2.0,7.0,95,0.00,,,-99.99,16.000000,,2013-07-17 01:32:00,
2013-07-16 20:43:00,76.0,74.0,-100.00,East,99,2.0,7.0,95,0.00,,,-99.99,16.000000,,2013-07-17 01:43:00,
2013-07-16 20:53:00,76.0,74.0,-100.00,East,99,2.0,7.0,95,0.00,,,-99.99,16.000000,,2013-07-17 01:53:00,
2013-07-16 21:01:00,76.0,74.0,-100.00,East,99,2.0,7.0,95,0.00,,,-99.99,16.000000,,2013-07-17 02:01:00,
2013-07-16 21:32:00,75.0,74.0,-100.00,East,93,5.0,9.0,96,0.00,,,0.07,0.000000,,2013-07-17 02:32:00,
2013-07-16 21:43:00,75.0,74.0,-100.00,East,93,5.0,9.0,96,0.00,,,0.07,0.000000,,2013-07-17 02:43:00,
2013-07-16 21:53:00,75.0,74.0,-100.00,East,93,5.0,9.0,96,0.00,,,0.07,0.000000,,2013-07-17 02:53:00,
2013-07-16 22:01:00,75.0,74.0,-100.00,East,93,5.0,9.0,96,0.00,,,0.07,0.000000,,2013-07-17 03:01:00,
2013-07-16 22:32:00,75.0,74.0,-100.00,East,89,5.0,9.0,96,0.00,,,0.07,0.000000,,2013-07-17 03:32:00,
2013-07-16 22:43:00,75.0,74.0,-100.00,East,89,5.0,9.0,96,0.00,,,0.07,0.000000,,2013-07-17 03:43:00,
2013-07-16 22:53:00,75.0,74.0,-100.00,East,89,5.0,9.0,96,0.00,,,0.07,0.000000,,2013-07-17 03:53:00,
2013-07-16 23:01:00,75.0,74.0,-100.00,East,89,5.0,9.0,96,0.00,,,0.07,0.000000,,2013-07-17 04:01:00,
2013-07-16 23:32:00,75.0,74.0,-100.00,NE,53,3.0,7.0,96,0.00,,,-99.99,0.000000,,2013-07-17 04:32:00,
2013-07-16 23:43:00,75.0,74.0,-100.00,NE,53,3.0,7.0,96,0.00,,,-99.99,0.000000,,2013-07-17 04:43:00,
2013-07-16 23:53:00,75.0,74.0,-100.00,NE,53,3.0,7.0,96,0.00,,,-99.99,0.000000,,2013-07-17 04:53:00,